Simultaneous Nadir Overpasses (SNOs) Predictions

Prediction of SNOs between LANDSAT-8 and NOAA-19 Satellite Orbit:

Table of predicted SNOs for the next 14.0 days since TLE Epoch: 2/7/2014
Index Date (LANDSAT-8) Time (LANDSAT-8) Lat,Lon (LANDSAT-8) SZA (LANDSAT-8 ) Date (NOAA-19) Time (NOAA-19) Lat,Lon (NOAA-19) SZA (NOAA-19 ) Distance(km) Time Diff (sec)
1 02/09/2014 14:11:19 -72.17, 146.89 93.32 02/09/2014 14:10:10 -72.24, 144.75 93.18 73.19 69
2 02/09/2014 15:00:57 71.50, -46.62 86.03 02/09/2014 15:01:03 71.53, -46.65 86.06 3.19 6
3 02/09/2014 15:50:38 -70.77, 119.86 94.68 02/09/2014 15:51:45 -70.77, 121.95 94.75 76.54 67
4 02/11/2014 19:45:11 71.54,-117.62 85.35 02/11/2014 19:45:05 71.51,-117.61 85.32 3.29 6
5 02/11/2014 20:34:45 -71.20, 49.45 95.00 02/11/2014 20:35:56 -71.19, 50.23 95.03 27.86 71
6 02/14/2014 00:29:25 71.57, 171.35 84.64 02/14/2014 00:29:08 71.56, 171.32 84.63 1.74 17
7 02/14/2014 01:18:55 -71.44, -21.22 95.50 02/14/2014 01:20:04 -71.46, -21.26 95.48 2.91 69
8 02/16/2014 05:13:39 71.58, 100.30 83.90 02/16/2014 05:13:10 71.56, 100.33 83.88 2.31 29
9 02/16/2014 06:03:09 -71.45, -92.27 96.24 02/16/2014 06:04:06 -71.44, -92.20 96.26 3.06 57
10 02/18/2014 09:57:53 71.57, 29.23 83.12 02/18/2014 09:57:12 71.57, 29.32 83.12 3.24 41
11 02/18/2014 10:47:22 -71.50,-163.25 96.96 02/18/2014 10:48:10 -71.52,-163.34 96.95 3.49 48
12 02/20/2014 14:42:06 71.61, -41.78 82.37 02/20/2014 14:41:15 71.64, -41.79 82.41 3.44 51
13 02/20/2014 15:31:36 -71.48, 125.65 97.77 02/20/2014 15:32:12 -71.51, 125.70 97.75 3.02 36




NCC Satellite Simultaneous Nadir Overpasses (SNOs) Prediction Service
